SCP
1 2 3 3 3 4 5 5 4 3 4 4 3 3 2 2 1 1 1 1 1 1 0 0 0 0 0 0 0 0 0 0 0 0 0 0 0 0 0 0 0 0 0
1 2 3 3 3 4 5 5 4 4 4 4 3 3 2 2 1 1 1 1 1 0 0 0 0 0 0 0 0 0 0 0 0 0 0 0 0 0 0 0 0 0 0
1 2 2 3 3 4 5 5 4 4 4 4 3 3 3 2 2 1 1 1 1 1 1 1 1 0 1 1 1 1 1 1 1 1 1 0 0 0 0 0 0 0 0
1 2 2 3 3 4 4 4 4 4 4 4 3 3 3 3 3 2 2 1 1 1 1 1 1 1 1 1 1 1 1 2 1 1 1 1 1 0 0 0 0 0 0
1 2 3 3 3 4 4 4 4 4 4 4 4 4 4 4 3 2 2 2 1 1 1 1 2 2 2 2 2 2 2 2 2 2 1 1 1 0 0 0 0 0 0
2 3 4 4 4 4 4 4 4 4 4 5 5 4 4 4 4 3 3 2 2 1 1 2 2 2 2 2 2 3 3 3 2 2 2 1 1 1 1 0 0 0 0
3 3 4 4 4 4 4 4 4 4 4 5 5 5 4 4 4 3 3 2 2 2 2 2 3 3 2 2 2 2 2 2 2 2 2 2 1 1 1 1 1 1 0
3 3 4 4 3 3 4 4 4 4 4 5 5 5 5 4 4 3 2 2 2 2 2 2 3 2 2 2 2 2 2 2 2 2 2 2 2 1 1 1 1 1 1
3 3 3 3 3 3 3 3 3 4 4 5 5 4 4 4 4 3 2 2 2 2 2 3 3 2 2 2 3 2 2 2 2 2 2 2 2 2 1 2 2 1 1
3 3 3 3 3 3 3 3 3 3 4 4 3 3 3 4 4 3 2 2 3 3 3 3 3 3 3 3 3 3 3 2 2 3 3 2 2 2 2 2 2 2 1
3 3 3 3 3 3 3 3 3 3 3 3 3 3 3 3 3 3 2 2 3 3 3 3 3 3 3 3 3 3 2 2 2 2 2 2 2 3 2 2 2 2 2
3 3 3 4 5 5 4 4 4 3 3 3 3 3 3 3 3 3 3 3 3 3 3 3 2 2 2 3 3 3 2 2 2 2 2 2 3 3 3 3 3 3 3
4 4 5 6 6 6 5 4 4 4 3 3 3 3 3 3 3 3 3 3 3 3 3 2 2 2 2 3 3 3 3 2 2 2 2 3 3 3 3 3 3 3 2
4 5 5 6 6 6 5 5 4 4 4 4 3 3 3 3 3 3 3 2 2 2 2 2 2 2 3 3 3 3 3 2 2 2 2 3 3 3 2 2 2 2 2
5 5 5 5 5 6 6 6 5 5 4 4 4 4 3 3 3 3 3 2 2 2 2 3 3 3 3 3 3 3 2 2 2 2 3 3 3 3 2 1 2 2 2
5 5 5 5 5 6 7 6 5 5 5 4 4 4 3 3 3 3 3 3 3 2 3 3 3 3 3 2 2 2 2 2 2 2 2 3 3 2 1 1 1 1 2
6 6 5 4 5 6 7 6 5 5 5 5 5 4 4 3 4 4 4 3 3 3 3 4 3 3 2 1 1 1 1 2 2 2 2 2 2 1 1 1 1 1 1
6 5 5 5 5 6 6 5 5 6 6 6 5 4 4 4 4 4 4 4 4 4 4 4 3 3 2 1 1 1 1 1 1 1 1 1 1 1 2 2 2 2 2
3 4 4 4 5 5 5 5 5 5 6 6 5 4 4 5 4 4 4 4 4 4 4 4 4 3 2 2 1 1 1 2 2 2 2 2 2 2 2 2 3 3 3
2 3 3 4 5 6 6 5 5 5 5 5 5 5 5 5 5 5 5 4 4 4 4 4 4 3 2 2 1 1 1 2 2 2 2 2 1 1 1 2 3 2 2
3 3 4 5 6 7 6 6 5 5 5 5 5 5 6 5 5 5 4 4 4 4 4 4 3 3 2 2 1 1 1 2 2 3 2 2 1 1 1 1 1 1 1
4 4 5 6 7 7 7 7 6 6 6 6 6 6 6 5 4 4 4 4 4 4 4 4 3 3 2 2 1 1 1 1 2 2 2 1 1 0 0 0 0 0 0
4 4 5 6 6 7 7 7 7 6 6 6 6 6 6 5 4 3 4 4 4 3 3 3 3 2 2 2 1 1 0 1 1 2 2 1 0 0 0 0 0 0 0
3 4 4 4 5 5 6 7 7 6 6 6 6 6 5 4 4 3 3 3 3 3 3 3 3 2 2 2 1 1 1 1 1 1 1 1 0 0 1 1 1 1 1
3 3 3 3 4 4 5 6 6 6 6 6 5 5 4 4 3 3 3 2 2 2 2 3 2 2 2 1 1 1 1 1 1 1 1 1 1 1 1 1 1 2 2
3 3 3 3 4 4 5 5 5 6 6 6 5 4 4 3 3 2 2 1 1 1 2 2 1 1 1 1 0 0 1 1 1 1 1 1 1 1 1 2 2 2 2
Wind_Speed
13 14 14 14 13 13 13 12 12 11 9 7 7 7 7 6 5 5 5 6 5 5 4 3 4 4 3 3 3 3 3 2 1 2 1 2 3 3 2 3 3 4 4
13 14 15 15 15 15 14 14 14 13 12 8 7 5 5 5 5 5 5 6 6 6 6 5 4 4 3 4 4 3 3 2 2 2 2 2 3 4 3 3 3 3 4
14 15 16 16 16 16 16 14 14 14 13 11 8 6 6 5 6 6 6 7 7 7 6 6 6 4 5 5 5 4 5 3 3 2 2 2 1 1 3 3 3 3 3
13 14 16 16 17 16 15 14 14 14 13 12 10 10 8 8 7 6 6 7 7 8 7 7 7 6 5 4 6 6 4 5 4 3 3 3 2 2 1 2 3 4 4
12 13 15 16 16 15 14 14 14 14 13 13 12 11 10 7 5 6 6 7 7 8 8 8 7 7 6 6 6 5 6 5 5 3 3 3 2 4 3 2 2 2 3
10 12 13 13 14 14 14 14 14 14 14 14 13 13 11 9 7 7 6 7 6 7 9 9 8 8 7 7 6 6 8 6 5 4 4 3 3 3 3 3 3 3 3
8 10 12 13 14 15 15 14 15 14 14 14 14 13 12 11 11 9 8 8 7 7 8 8 8 7 7 7 7 7 7 7 6 6 5 4 4 3 3 3 4 4 3
7 8 10 12 13 15 15 15 15 14 14 14 13 12 12 10 9 10 8 8 7 7 7 9 9 9 9 8 7 7 7 6 7 8 6 4 4 4 4 4 4 4 4
5 7 9 10 12 13 14 15 15 14 14 14 13 12 12 11 10 9 9 8 8 7 8 9 9 9 9 8 8 6 6 6 7 7 7 6 5 5 4 4 4 4 5
4 5 7 8 9 11 12 13 13 13 13 13 12 10 11 11 10 9 10 9 9 8 8 8 9 9 8 8 8 7 6 7 6 5 6 6 5 5 5 5 5 5 5
3 5 5 7 8 9 11 11 12 12 11 12 11 11 10 11 11 10 10 9 9 8 9 9 9 8 8 8 8 8 7 8 7 7 7 7 7 5 5 5 5 5 5
2 4 5 7 8 9 9 10 10 10 10 10 10 10 10 10 10 10 9 9 8 8 8 8 9 8 8 8 8 8 8 8 8 7 7 8 6 7 6 5 6 5 5
2 4 5 5 7 8 8 9 9 9 8 8 9 9 9 9 9 9 8 8 8 8 8 8 8 8 8 7 7 7 8 8 7 7 8 8 7 7 6 6 6 5 5
3 4 5 5 5 6 7 7 8 7 7 7 8 8 8 8 8 7 7 7 7 7 7 6 6 7 7 6 7 7 7 7 7 7 7 7 7 7 7 6 6 6 6
3 4 4 5 5 6 6 6 7 7 6 6 6 6 6 6 7 7 7 7 7 7 6 6 6 5 5 5 6 6 7 7 6 6 6 6 4 4 4 5 4 5 5
3 3 4 5 5 5 6 6 6 6 6 6 6 5 5 6 6 6 6 6 6 6 5 5 5 5 3 2 3 5 5 5 5 5 4 4 4 3 4 4 3 4 5
2 2 3 3 4 4 4 5 6 6 6 5 5 5 5 6 6 6 6 6 6 5 5 4 4 4 2 3 3 3 3 3 3 2 3 3 2 3 3 3 3 3 3
1 1 2 3 3 3 4 5 6 6 6 6 5 4 4 4 5 5 5 5 4 4 4 3 3 3 2 4 4 3 3 2 1 1 1 2 1 1 1 2 2 2 1
1 1 1 2 3 3 4 5 6 6 6 5 5 4 4 4 4 5 4 4 4 4 4 3 3 3 3 4 4 4 3 2 1 1 0 1 0 2 1 2 2 1 1
2 2 2 2 3 3 4 5 6 5 5 5 4 5 4 4 4 4 4 4 4 4 4 4 4 4 4 5 4 3 2 2 2 1 1 3 3 4 2 1 1 1 2
3 2 2 2 2 3 4 5 5 5 4 5 5 5 5 5 5 4 4 4 5 5 5 5 5 5 5 6 4 2 1 2 2 2 2 3 5 5 5 3 2 2 2
3 3 3 3 3 3 4 5 4 4 5 5 6 6 5 5 5 5 5 5 5 6 5 5 5 4 5 5 4 3 2 1 3 3 3 5 7 8 7 5 5 4 2
3 3 3 4 4 3 4 5 4 4 6 6 6 6 6 5 5 5 5 5 4 4 4 4 5 4 4 5 6 5 4 4 4 5 7 7 7 6 6 5 4 3 2
3 3 3 4 3 3 4 4 4 5 6 7 7 7 7 6 6 4 3 3 3 3 3 4 4 4 4 3 3 4 5 6 6 5 7 7 6 5 5 4 4 4 4
2 2 3 4 3 3 4 4 4 5 7 8 7 7 7 7 7 7 6 5 6 4 3 3 3 4 4 3 4 3 3 3 4 5 4 4 4 4 4 4 4 4 4
2 3 3 4 4 4 4 4 4 5 7 7 7 6 6 7 7 8 8 14 11 14 13 10 6 7 8 8 9 9 9 8 6 5 5 5 4 4 4 4 4 4 4
Wind_Direction
195 189 191 192 189 190 190 190 194 189 189 191 195 195 196 200 201 200 194 207 212 202 214 218 184 216 202 191 192 192 182 203 209 233 216 201 191 183 194 213 204 191 197
195 190 192 193 194 192 194 193 194 191 193 193 198 201 202 203 202 208 196 213 214 215 209 216 214 210 210 207 208 213 230 214 210 262 264 228 183 187 185 197 207 207 200
201 194 195 196 197 197 197 197 196 193 196 192 194 195 194 208 198 204 202 212 215 218 226 213 224 217 223 212 213 217 227 234 221 254 291 292 322 323 170 195 205 209 216
208 200 197 198 201 200 196 197 195 194 193 193 202 202 204 207 206 206 202 205 212 220 219 218 218 223 229 221 225 219 230 236 239 217 236 274 321 285 257 205 188 199 216
210 207 203 200 201 199 195 193 193 195 195 199 202 205 215 217 212 211 208 214 211 220 223 219 219 219 226 227 236 231 233 235 246 248 234 234 228 244 256 265 251 222 219
211 209 205 198 198 196 195 193 192 196 197 200 203 206 214 218 218 217 214 217 213 213 219 221 219 221 225 222 224 229 225 236 248 256 249 244 249 254 253 261 256 251 240
205 203 200 196 195 196 195 195 193 197 199 201 204 204 210 213 217 219 217 224 222 213 209 217 218 221 221 222 223 224 236 230 232 238 245 246 254 261 258 265 273 272 251
198 200 200 198 195 194 194 194 195 197 198 201 204 207 209 215 218 217 224 222 230 230 216 215 220 223 221 221 218 228 229 230 233 237 243 251 246 249 249 253 266 273 261
196 198 198 197 194 192 192 194 194 196 198 200 202 207 211 218 221 217 220 226 226 230 223 220 222 223 222 224 221 230 231 231 233 234 228 238 244 239 245 248 247 259 271
188 187 188 188 190 189 189 191 192 194 197 200 203 205 210 214 218 223 222 229 229 230 227 226 226 224 221 219 221 226 225 230 234 236 240 240 241 243 241 241 243 248 262
175 171 174 176 180 182 182 184 188 191 195 201 204 209 210 212 215 218 222 224 229 226 225 224 224 223 222 221 219 225 223 229 233 234 232 236 245 244 241 238 238 238 244
147 157 161 167 172 174 176 179 185 190 194 198 202 208 211 212 215 216 219 222 225 226 226 226 222 220 220 219 220 223 224 228 233 235 238 241 238 236 242 243 244 242 239
114 137 146 157 168 169 171 175 181 185 189 194 199 203 205 207 212 214 213 218 221 223 223 223 223 222 219 217 222 227 229 231 234 236 240 245 244 241 238 239 243 240 235
113 128 141 151 163 168 171 174 175 176 179 187 197 200 201 202 206 208 208 211 214 216 214 217 220 220 218 219 226 226 229 233 235 237 242 248 246 244 246 241 242 245 248
117 127 142 149 157 161 167 171 168 168 173 180 188 193 196 194 196 201 205 205 209 211 207 211 214 216 213 219 224 225 225 229 235 236 240 246 249 261 258 263 254 250 249
116 119 125 142 153 163 167 166 165 166 169 174 178 182 188 188 190 195 198 200 205 209 206 209 207 209 212 171 202 233 230 230 231 234 239 235 226 225 227 251 272 280 266
93 104 116 139 153 161 163 161 157 156 159 163 166 175 184 187 189 191 192 197 200 201 202 204 201 198 173 144 164 199 231 232 243 241 245 249 227 225 232 202 202 234 264
72 99 118 133 144 142 151 153 150 151 155 159 167 172 176 178 179 186 191 192 192 188 184 184 182 177 142 140 151 160 196 202 203 229 242 265 270 283 289 241 233 247 272
53 83 115 131 137 146 151 151 148 148 152 160 165 162 166 170 170 176 181 182 169 163 164 160 152 148 126 120 142 167 178 158 158 178 64 300 258 39 6 255 240 261 280
55 75 95 111 131 143 149 154 151 152 154 159 158 155 159 158 160 160 158 153 151 152 148 134 132 132 123 115 127 168 169 146 149 128 93 54 39 39 21 265 244 262 281
68 82 91 96 109 132 142 145 139 140 143 142 143 143 145 145 143 138 137 141 139 132 129 122 114 106 101 106 107 137 171 155 142 118 93 65 67 60 46 27 26 350 309
75 89 96 93 96 121 135 132 126 130 133 135 134 131 132 132 129 124 122 125 129 130 128 120 112 102 97 91 98 98 81 65 114 101 87 77 80 74 60 54 38 19 355
73 87 106 102 97 107 120 123 125 136 136 132 128 126 120 114 114 119 123 128 133 133 130 129 124 113 105 99 98 102 98 89 95 85 79 80 89 93 78 60 42 36 37
86 97 111 107 100 101 104 110 125 136 136 131 127 123 118 109 97 92 95 99 103 121 123 124 123 118 107 102 118 126 120 117 114 109 105 100 87 80 72 71 63 52 42
82 88 99 105 100 96 96 97 117 135 134 129 127 125 118 110 97 78 54 63 54 39 80 104 106 117 114 75 59 95 105 107 106 112 98 84 81 75 69 64 58 52 54
84 84 87 91 95 97 102 107 117 129 133 131 134 132 127 121 117 109 86 58 62 58 55 57 77 82 84 87 80 78 79 86 102 101 89 79 71 64 58 58 57 52 44